This demonstration page uses our WeatherBlox Daily Observations layout. Learn more.

Left ArrowRight Arrow

Hourly Observations for November 5, 2016

Temp ( °F °C ) Dew Point ( °F °C ) Humidity (%) Winds ( mph kmh ) Pressure ( in mb ) Visibility ( mi km ) Precip ( " mm )
12:51 am 00:51 Clear 51 10.6 49 9.4 92 92 N N/A 30.05 1018 10 16.0934 N/A
1:51 am 01:51 Clear 50 10 48 8.9 93 93 ENE 5 7 30.03 1017 10 16.0934 N/A
2:51 am 02:51 Clear 52 11.1 48 8.9 86 86 E 6 9 30.02 1017 10 16.0934 N/A
3:51 am 03:51 Clear 48 8.9 47 8.3 96 96 WNW 5 7 30.03 1017 10 16.0934 N/A
4:51 am 04:51 Mostly Cloudy 50 10 49 9.4 96 96 N N/A 30.02 1017 10 16.0934 N/A
5:51 am 05:51 Cloudy 51 10.6 49 9.4 92 92 NW 6 9 30.04 1017 10 16.0934 N/A
6:51 am 06:51 Mostly Cloudy 50 10 49 9.4 96 96 WNW 6 9 30.06 1018 9 14.48406 N/A
7:51 am 07:51 Partly Cloudy 54 12.2 51 10.6 90 90 NNE 3 6 30.07 1018 10 16.0934 N/A
8:51 am 08:51 Sunny 57 13.9 50 10 78 78 WNW 5 7 30.07 1018 10 16.0934 N/A
9:51 am 09:51 Sunny 61 16.1 51 10.6 70 70 undefined N/A 30.05 1018 10 16.0934 N/A
10:51 am 10:51 Sunny 64 17.8 51 10.6 63 63 NW 3 6 30.03 1017 10 16.0934 N/A
11:51 am 11:51 Sunny 68 20 53 11.7 59 59 WNW 9 15 30 1016 10 16.0934 N/A
12:51 pm 12:51 Sunny 69 20.6 54 12.2 59 59 WNW 7 11 29.96 1015 10 16.0934 N/A
1:51 pm 13:51 Sunny 72 22.2 53 11.7 52 52 VRB 5 7 29.93 1014 10 16.0934 N/A
2:51 pm 14:51 Sunny 72 22.2 51 10.6 48 48 W 3 6 29.91 1013 10 16.0934 N/A
3:51 pm 15:51 Sunny 72 22.2 49 9.4 44 44 VRB 3 6 29.92 1013 10 16.0934 N/A
4:51 pm 16:51 Sunny 71 21.7 50 10 47 47 W 3 6 29.91 1013 10 16.0934 N/A
5:51 pm 17:51 Mostly Clear 64 17.8 54 12.2 70 70 WNW 7 11 29.93 1014 10 16.0934 N/A
6:51 pm 18:51 Clear 61 16.1 56 13.3 84 84 WNW 3 6 29.96 1015 10 16.0934 N/A
7:51 pm 19:51 Clear 59 15 54 12.2 83 83 WNW 6 9 29.96 1015 10 16.0934 N/A
8:51 pm 20:51 Clear 58 14.4 52 11.1 81 81 NNW 5 7 29.96 1015 10 16.0934 N/A
9:51 pm 21:51 Clear 58 14.4 52 11.1 81 81 N N/A 29.96 1015 10 16.0934 N/A
10:51 pm 22:51 Clear 56 13.3 51 10.6 84 84 N N/A 29.97 1015 10 16.0934 N/A
11:51 pm 23:51 Clear 54 12.2 51 10.6 90 90 N N/A 29.96 1015 10 16.0934 N/A

Powered by AerisWeather